Year,Month,Day,Hour,Minute,Value (Times are PST for temperature in C)
2009,04,25,00,00,7.80
2009,04,25,00,01,7.80
2009,04,25,00,02,7.80
2009,04,25,00,03,7.80
2009,04,25,00,04,7.80
2009,04,25,00,05,7.70
2009,04,25,00,06,7.70
2009,04,25,00,07,7.70
2009,04,25,00,08,7.70
2009,04,25,00,09,7.70
2009,04,25,00,10,7.70
2009,04,25,00,11,7.70
2009,04,25,00,12,7.70
2009,04,25,00,13,7.70
2009,04,25,00,14,7.70
2009,04,25,00,15,7.60
2009,04,25,00,16,7.60
2009,04,25,00,17,7.60
2009,04,25,00,18,7.60
2009,04,25,00,19,7.60
2009,04,25,00,20,7.60
2009,04,25,00,21,7.60
2009,04,25,00,22,7.60
2009,04,25,00,23,7.60
2009,04,25,00,24,7.70
2009,04,25,00,25,7.70
2009,04,25,00,26,7.70
2009,04,25,00,27,7.70
2009,04,25,00,28,7.70
2009,04,25,00,29,7.70
2009,04,25,00,30,7.70
2009,04,25,00,31,7.70
2009,04,25,00,32,7.70
2009,04,25,00,33,7.60
2009,04,25,00,34,7.60
2009,04,25,00,35,7.60
2009,04,25,00,36,7.60
2009,04,25,00,37,7.60
2009,04,25,00,38,7.60
2009,04,25,00,39,7.60
2009,04,25,00,40,7.50
2009,04,25,00,41,7.50
2009,04,25,00,42,7.50
2009,04,25,00,43,7.50
2009,04,25,00,44,7.50
2009,04,25,00,45,7.50
2009,04,25,00,46,7.50
2009,04,25,00,47,7.40
2009,04,25,00,48,7.40
2009,04,25,00,49,7.40
2009,04,25,00,50,7.40
2009,04,25,00,51,7.40
2009,04,25,00,52,7.40
2009,04,25,00,53,7.40
2009,04,25,00,54,7.40
2009,04,25,00,55,7.40
2009,04,25,00,56,7.40
2009,04,25,00,57,7.40
2009,04,25,00,58,7.40
2009,04,25,00,59,7.40
2009,04,25,01,00,7.40
2009,04,25,01,01,7.30
2009,04,25,01,02,7.30
2009,04,25,01,03,7.30
2009,04,25,01,04,7.40
2009,04,25,01,05,7.40
2009,04,25,01,06,7.40
2009,04,25,01,07,7.40
2009,04,25,01,08,7.40
2009,04,25,01,09,7.40
2009,04,25,01,10,7.40
2009,04,25,01,11,7.30
2009,04,25,01,12,7.30
2009,04,25,01,13,7.30
2009,04,25,01,14,7.30
2009,04,25,01,15,7.30
2009,04,25,01,16,7.30
2009,04,25,01,17,7.20
2009,04,25,01,18,7.20
2009,04,25,01,19,7.20
2009,04,25,01,20,7.20
2009,04,25,01,21,7.20
2009,04,25,01,22,7.20
2009,04,25,01,23,7.20
2009,04,25,01,24,7.20
2009,04,25,01,25,7.20
2009,04,25,01,26,7.20
2009,04,25,01,27,7.20
2009,04,25,01,28,7.20
2009,04,25,01,29,7.20
2009,04,25,01,30,7.20
2009,04,25,01,31,7.20
2009,04,25,01,32,7.20
2009,04,25,01,33,7.30
2009,04,25,01,34,7.30
2009,04,25,01,35,7.30
2009,04,25,01,36,7.30
2009,04,25,01,37,7.30
2009,04,25,01,38,7.30
2009,04,25,01,39,7.30
2009,04,25,01,40,7.40
2009,04,25,01,41,7.40
2009,04,25,01,42,7.40
2009,04,25,01,43,7.30
2009,04,25,01,44,7.30
2009,04,25,01,45,7.30
2009,04,25,01,46,7.30
2009,04,25,01,47,7.30
2009,04,25,01,48,7.30
2009,04,25,01,49,7.20
2009,04,25,01,50,7.20
2009,04,25,01,51,7.20
2009,04,25,01,52,7.20
2009,04,25,01,53,7.20
2009,04,25,01,54,7.20
2009,04,25,01,55,7.20
2009,04,25,01,56,7.20
2009,04,25,01,57,7.20
2009,04,25,01,58,7.20
2009,04,25,01,59,7.20
2009,04,25,02,00,7.30
2009,04,25,02,01,7.30
2009,04,25,02,02,7.30
2009,04,25,02,03,7.30
2009,04,25,02,04,7.30
2009,04,25,02,05,7.30
2009,04,25,02,06,7.30
2009,04,25,02,07,7.30
2009,04,25,02,08,7.30
2009,04,25,02,09,7.30
2009,04,25,02,10,7.30
2009,04,25,02,11,7.30
2009,04,25,02,12,7.30
2009,04,25,02,13,7.30
2009,04,25,02,14,7.30
2009,04,25,02,15,7.30
2009,04,25,02,16,7.30
2009,04,25,02,17,7.30
2009,04,25,02,18,7.30
2009,04,25,02,19,7.30
2009,04,25,02,20,7.30
2009,04,25,02,21,7.30
2009,04,25,02,22,7.30
2009,04,25,02,23,7.30
2009,04,25,02,24,7.30
2009,04,25,02,25,7.30
2009,04,25,02,26,7.30
2009,04,25,02,27,7.30
2009,04,25,02,28,7.30
2009,04,25,02,29,7.30
2009,04,25,02,30,7.20
2009,04,25,02,31,7.20
2009,04,25,02,32,7.20
2009,04,25,02,33,7.20
2009,04,25,02,34,7.20
2009,04,25,02,35,7.10
2009,04,25,02,36,7.10
2009,04,25,02,37,7.10
2009,04,25,02,38,7.00
2009,04,25,02,39,7.00
2009,04,25,02,40,6.90
2009,04,25,02,41,6.90
2009,04,25,02,42,6.80
2009,04,25,02,43,6.80
2009,04,25,02,44,6.70
2009,04,25,02,45,6.60
2009,04,25,02,46,6.60
2009,04,25,02,47,6.50
2009,04,25,02,48,6.50
2009,04,25,02,49,6.40
2009,04,25,02,50,6.40
2009,04,25,02,51,6.30
2009,04,25,02,52,6.30
2009,04,25,02,53,6.20
2009,04,25,02,54,6.20
2009,04,25,02,55,6.20
2009,04,25,02,56,6.20
2009,04,25,02,57,6.10
2009,04,25,02,58,6.10
2009,04,25,02,59,6.00
2009,04,25,03,00,6.00
2009,04,25,03,01,5.90
2009,04,25,03,02,5.90
2009,04,25,03,03,5.80
2009,04,25,03,04,5.80
2009,04,25,03,05,5.80
2009,04,25,03,06,5.80
2009,04,25,03,07,5.70
2009,04,25,03,08,5.70
2009,04,25,03,09,5.70
2009,04,25,03,10,5.70
2009,04,25,03,11,5.70
2009,04,25,03,12,5.70
2009,04,25,03,13,5.70
2009,04,25,03,14,5.70
2009,04,25,03,15,5.70
2009,04,25,03,16,5.70
2009,04,25,03,17,5.70
2009,04,25,03,18,5.70
2009,04,25,03,19,5.70
2009,04,25,03,20,5.70
2009,04,25,03,21,5.70
2009,04,25,03,22,5.70
2009,04,25,03,23,5.70
2009,04,25,03,24,5.70
2009,04,25,03,25,5.70
2009,04,25,03,26,5.70
2009,04,25,03,27,5.70
2009,04,25,03,28,5.70
2009,04,25,03,29,5.70
2009,04,25,03,30,5.80
2009,04,25,03,31,5.80
2009,04,25,03,32,5.80
2009,04,25,03,33,5.80
2009,04,25,03,34,5.80
2009,04,25,03,35,5.80
2009,04,25,03,36,5.80
2009,04,25,03,37,5.80
2009,04,25,03,38,5.80
2009,04,25,03,39,5.80
2009,04,25,03,40,5.80
2009,04,25,03,41,5.80
2009,04,25,03,42,5.80
2009,04,25,03,43,5.90
2009,04,25,03,44,5.90
2009,04,25,03,45,5.90
2009,04,25,03,46,5.90
2009,04,25,03,47,5.90
2009,04,25,03,48,5.90
2009,04,25,03,49,5.90
2009,04,25,03,50,5.90
2009,04,25,03,51,5.90
2009,04,25,03,52,5.90
2009,04,25,03,53,5.90
2009,04,25,03,54,5.90
2009,04,25,03,55,5.90
2009,04,25,03,56,5.90
2009,04,25,03,57,5.80
2009,04,25,03,58,5.80
2009,04,25,03,59,5.70
2009,04,25,04,00,5.70
2009,04,25,04,01,5.60
2009,04,25,04,02,5.60
2009,04,25,04,03,5.60
2009,04,25,04,04,5.50
2009,04,25,04,05,5.50
2009,04,25,04,06,5.50
2009,04,25,04,07,5.50
2009,04,25,04,08,5.50
2009,04,25,04,09,5.40
2009,04,25,04,10,5.40
2009,04,25,04,11,5.40
2009,04,25,04,12,5.40
2009,04,25,04,13,5.40
2009,04,25,04,14,5.30
2009,04,25,04,15,5.30
2009,04,25,04,16,5.30
2009,04,25,04,17,5.30
2009,04,25,04,18,5.30
2009,04,25,04,19,5.20
2009,04,25,04,20,5.20
2009,04,25,04,21,5.20
2009,04,25,04,22,5.20
2009,04,25,04,23,5.20
2009,04,25,04,24,5.20
2009,04,25,04,25,5.20
2009,04,25,04,26,5.10
2009,04,25,04,27,5.10
2009,04,25,04,28,5.00
2009,04,25,04,29,5.00
2009,04,25,04,30,4.90
2009,04,25,04,31,4.90
2009,04,25,04,32,4.90
2009,04,25,04,33,4.90
2009,04,25,04,34,4.90
2009,04,25,04,35,4.80
2009,04,25,04,36,4.80
2009,04,25,04,37,4.80
2009,04,25,04,38,4.80
2009,04,25,04,39,4.70
2009,04,25,04,40,4.70
2009,04,25,04,41,4.70
2009,04,25,04,42,4.70
2009,04,25,04,43,4.60
2009,04,25,04,44,4.60
2009,04,25,04,45,4.60
2009,04,25,04,46,4.60
2009,04,25,04,47,4.60
2009,04,25,04,48,4.60
2009,04,25,04,49,4.50
2009,04,25,04,50,4.50
2009,04,25,04,51,4.40
2009,04,25,04,52,4.40
2009,04,25,04,53,4.40
2009,04,25,04,54,4.30
2009,04,25,04,55,4.30
2009,04,25,04,56,4.30
2009,04,25,04,57,4.30
2009,04,25,04,58,4.30
2009,04,25,04,59,4.30
2009,04,25,05,00,4.30
2009,04,25,05,01,4.30
2009,04,25,05,02,4.30
2009,04,25,05,03,4.30
2009,04,25,05,04,4.20
2009,04,25,05,05,4.20
2009,04,25,05,06,4.20
2009,04,25,05,07,4.20
2009,04,25,05,08,4.20
2009,04,25,05,09,4.20
2009,04,25,05,10,4.10
2009,04,25,05,11,4.10
2009,04,25,05,12,4.10
2009,04,25,05,13,4.10
2009,04,25,05,14,4.10
2009,04,25,05,15,4.10
2009,04,25,05,16,4.10
2009,04,25,05,17,4.00
2009,04,25,05,18,4.00
2009,04,25,05,19,4.00
2009,04,25,05,20,4.00
2009,04,25,05,21,4.00
2009,04,25,05,22,4.00
2009,04,25,05,23,4.00
2009,04,25,05,24,3.90
2009,04,25,05,25,3.90
2009,04,25,05,26,3.90
2009,04,25,05,27,3.90
2009,04,25,05,28,3.80
2009,04,25,05,29,3.80
2009,04,25,05,30,3.80
2009,04,25,05,31,3.70
2009,04,25,05,32,3.70
2009,04,25,05,33,3.70
2009,04,25,05,34,3.70
2009,04,25,05,35,3.70
2009,04,25,05,36,3.70
2009,04,25,05,37,3.70
2009,04,25,05,38,3.60
2009,04,25,05,39,3.70
2009,04,25,05,40,3.60
2009,04,25,05,41,3.60
2009,04,25,05,42,3.60
2009,04,25,05,43,3.60
2009,04,25,05,44,3.60
2009,04,25,05,45,3.60
2009,04,25,05,46,3.60
2009,04,25,05,47,3.50
2009,04,25,05,48,3.50
2009,04,25,05,49,3.50
2009,04,25,05,50,3.40
2009,04,25,05,51,3.40
2009,04,25,05,52,3.40
2009,04,25,05,53,3.40
2009,04,25,05,54,3.40
2009,04,25,05,55,3.40
2009,04,25,05,56,3.40
2009,04,25,05,57,3.40
2009,04,25,05,58,3.30
2009,04,25,05,59,3.30
2009,04,25,06,00,3.30
2009,04,25,06,01,3.30
2009,04,25,06,02,3.30
2009,04,25,06,03,3.30
2009,04,25,06,04,3.30
2009,04,25,06,05,3.30
2009,04,25,06,06,3.30
2009,04,25,06,07,3.30
2009,04,25,06,08,3.30
2009,04,25,06,09,3.30
2009,04,25,06,10,3.30
2009,04,25,06,11,3.30
2009,04,25,06,12,3.20
2009,04,25,06,13,3.20
2009,04,25,06,14,3.20
2009,04,25,06,15,3.10
2009,04,25,06,16,3.10
2009,04,25,06,17,3.10
2009,04,25,06,18,3.10
2009,04,25,06,19,3.10
2009,04,25,06,20,3.10
2009,04,25,06,21,3.10
2009,04,25,06,22,3.10
2009,04,25,06,23,3.10
2009,04,25,06,24,3.10
2009,04,25,06,25,3.10
2009,04,25,06,26,3.10
2009,04,25,06,27,3.10
2009,04,25,06,28,3.10
2009,04,25,06,29,3.10
2009,04,25,06,30,3.10
2009,04,25,06,31,3.10
2009,04,25,06,32,3.10
2009,04,25,06,33,3.10
2009,04,25,06,34,3.10
2009,04,25,06,35,3.10
2009,04,25,06,36,3.10
2009,04,25,06,37,3.20
2009,04,25,06,38,3.20
2009,04,25,06,39,3.20
2009,04,25,06,40,3.20
2009,04,25,06,41,3.20
2009,04,25,06,42,3.20
2009,04,25,06,43,3.20
2009,04,25,06,44,3.20
2009,04,25,06,45,3.20
2009,04,25,06,46,3.20
2009,04,25,06,47,3.20
2009,04,25,06,48,3.30
2009,04,25,06,49,3.30
2009,04,25,06,50,3.30
2009,04,25,06,51,3.30
2009,04,25,06,52,3.30
2009,04,25,06,53,3.30
2009,04,25,06,54,3.30
2009,04,25,06,55,3.30
2009,04,25,06,56,3.30
2009,04,25,06,57,3.30
2009,04,25,06,58,3.40
2009,04,25,06,59,3.40
2009,04,25,07,00,3.40
2009,04,25,07,01,3.40
2009,04,25,07,02,3.40
2009,04,25,07,03,3.50
2009,04,25,07,04,3.50
2009,04,25,07,05,3.50
2009,04,25,07,06,3.50
2009,04,25,07,07,3.50
2009,04,25,07,08,3.60
2009,04,25,07,09,3.60
2009,04,25,07,10,3.60
2009,04,25,07,11,3.60
2009,04,25,07,12,3.60
2009,04,25,07,13,3.60
2009,04,25,07,14,3.70
2009,04,25,07,15,3.70
2009,04,25,07,16,3.70
2009,04,25,07,17,3.70
2009,04,25,07,18,3.70
2009,04,25,07,19,3.70
2009,04,25,07,20,3.70
2009,04,25,07,21,3.70
2009,04,25,07,22,3.80
2009,04,25,07,23,3.80
2009,04,25,07,24,3.80
2009,04,25,07,25,3.80
2009,04,25,07,26,3.90
2009,04,25,07,27,3.90
2009,04,25,07,28,3.90
2009,04,25,07,29,4.00
2009,04,25,07,30,4.00
2009,04,25,07,31,4.00
2009,04,25,07,32,4.10
2009,04,25,07,33,4.10
2009,04,25,07,34,4.20
2009,04,25,07,35,4.20
2009,04,25,07,36,4.20
2009,04,25,07,37,4.20
2009,04,25,07,38,4.20
2009,04,25,07,39,4.30
2009,04,25,07,40,4.30
2009,04,25,07,41,4.30
2009,04,25,07,42,4.30
2009,04,25,07,43,4.30
2009,04,25,07,44,4.30
2009,04,25,07,45,4.30
2009,04,25,07,46,4.30
2009,04,25,07,47,4.40
2009,04,25,07,48,4.40
2009,04,25,07,49,4.40
2009,04,25,07,50,4.40
2009,04,25,07,51,4.40
2009,04,25,07,52,4.50
2009,04,25,07,53,4.50
2009,04,25,07,54,4.50
2009,04,25,07,55,4.50
2009,04,25,07,56,4.60
2009,04,25,07,57,4.60
2009,04,25,07,58,4.60
2009,04,25,07,59,4.60
2009,04,25,08,00,4.70
2009,04,25,08,01,4.70
2009,04,25,08,02,4.70
2009,04,25,08,03,4.70
2009,04,25,08,04,4.80
2009,04,25,08,05,4.80
2009,04,25,08,06,4.80
2009,04,25,08,07,4.90
2009,04,25,08,08,4.90
2009,04,25,08,09,4.90
2009,04,25,08,10,5.00
2009,04,25,08,11,5.00
2009,04,25,08,12,5.10
2009,04,25,08,13,5.10
2009,04,25,08,14,5.10
2009,04,25,08,15,5.20
2009,04,25,08,16,5.20
2009,04,25,08,17,5.30
2009,04,25,08,18,5.30
2009,04,25,08,19,5.30
2009,04,25,08,20,5.40
2009,04,25,08,21,5.40
2009,04,25,08,22,5.40
2009,04,25,08,23,5.50
2009,04,25,08,24,5.50
2009,04,25,08,25,5.60
2009,04,25,08,26,5.60
2009,04,25,08,27,5.70
2009,04,25,08,28,5.80
2009,04,25,08,29,5.90
2009,04,25,08,30,5.90
2009,04,25,08,31,6.10
2009,04,25,08,32,6.20
2009,04,25,08,33,6.20
2009,04,25,08,34,6.30
2009,04,25,08,35,6.40
2009,04,25,08,36,6.50
2009,04,25,08,37,6.60
2009,04,25,08,38,6.70
2009,04,25,08,39,6.80
2009,04,25,08,40,6.90
2009,04,25,08,41,7.00
2009,04,25,08,42,7.10
2009,04,25,08,43,7.10
2009,04,25,08,44,7.20
2009,04,25,08,45,7.20
2009,04,25,08,46,7.20
2009,04,25,08,47,7.20
2009,04,25,08,48,7.20
2009,04,25,08,49,7.20
2009,04,25,08,50,7.30
2009,04,25,08,51,7.30
2009,04,25,08,52,7.30
2009,04,25,08,53,7.30
2009,04,25,08,54,7.30
2009,04,25,08,55,7.30
2009,04,25,08,56,7.30
2009,04,25,08,57,7.30
2009,04,25,08,58,7.30
2009,04,25,08,59,7.30
2009,04,25,09,00,7.40
2009,04,25,09,01,7.40
2009,04,25,09,02,7.50
2009,04,25,09,03,7.60
2009,04,25,09,04,7.70
2009,04,25,09,05,7.80
2009,04,25,09,06,7.90
2009,04,25,09,07,8.00
2009,04,25,09,08,8.10
2009,04,25,09,09,8.20
2009,04,25,09,10,8.40
2009,04,25,09,11,8.60
2009,04,25,09,12,8.70
2009,04,25,09,13,8.80
2009,04,25,09,14,8.80
2009,04,25,09,15,8.80
2009,04,25,09,16,8.90
2009,04,25,09,17,8.90
2009,04,25,09,18,8.90
2009,04,25,09,19,8.80
2009,04,25,09,20,8.80
2009,04,25,09,21,8.80
2009,04,25,09,22,8.80
2009,04,25,09,23,8.80
2009,04,25,09,24,8.80
2009,04,25,09,25,8.80
2009,04,25,09,26,8.80
2009,04,25,09,27,8.80
2009,04,25,09,28,8.80
2009,04,25,09,29,8.80
2009,04,25,09,30,8.80
2009,04,25,09,31,8.80
2009,04,25,09,32,8.80
2009,04,25,09,33,8.90
2009,04,25,09,34,8.90
2009,04,25,09,35,8.90
2009,04,25,09,36,8.90
2009,04,25,09,37,8.90
2009,04,25,09,38,9.00
2009,04,25,09,39,9.00
2009,04,25,09,40,9.00
2009,04,25,09,41,9.00
2009,04,25,09,42,9.00
2009,04,25,09,43,9.00
2009,04,25,09,44,9.10
2009,04,25,09,45,9.10
2009,04,25,09,46,9.20
2009,04,25,09,47,9.30
2009,04,25,09,48,9.30
2009,04,25,09,49,9.40
2009,04,25,09,50,9.40
2009,04,25,09,51,9.40
2009,04,25,09,52,9.30
2009,04,25,09,53,9.30
2009,04,25,09,54,9.30
2009,04,25,09,55,9.30
2009,04,25,09,56,9.40
2009,04,25,09,57,9.40
2009,04,25,09,58,9.50
2009,04,25,09,59,9.60
2009,04,25,10,00,9.60
2009,04,25,10,01,9.60
2009,04,25,10,02,9.60
2009,04,25,10,03,9.60
2009,04,25,10,04,9.60
2009,04,25,10,05,9.70
2009,04,25,10,06,9.70
2009,04,25,10,07,9.80
2009,04,25,10,08,9.80
2009,04,25,10,09,9.80
2009,04,25,10,10,9.80
2009,04,25,10,11,9.80
2009,04,25,10,12,9.80
2009,04,25,10,13,9.80
2009,04,25,10,14,9.90
2009,04,25,10,15,9.90
2009,04,25,10,16,9.90
2009,04,25,10,17,10.00
2009,04,25,10,18,9.90
2009,04,25,10,19,9.90
2009,04,25,10,20,9.80
2009,04,25,10,21,9.80
2009,04,25,10,22,9.80
2009,04,25,10,23,9.70
2009,04,25,10,24,9.60
2009,04,25,10,25,9.60
2009,04,25,10,26,9.50
2009,04,25,10,27,9.40
2009,04,25,10,28,9.40
2009,04,25,10,29,9.30
2009,04,25,10,30,9.20
2009,04,25,10,31,9.20
2009,04,25,10,32,9.10
2009,04,25,10,33,9.10
2009,04,25,10,34,9.10
2009,04,25,10,35,9.00
2009,04,25,10,36,9.00
2009,04,25,10,37,9.00
2009,04,25,10,38,8.90
2009,04,25,10,39,8.90
2009,04,25,10,40,8.80
2009,04,25,10,41,8.80
2009,04,25,10,42,8.80
2009,04,25,10,43,8.80
2009,04,25,10,44,8.80
2009,04,25,10,45,8.70
2009,04,25,10,46,8.70
2009,04,25,10,47,8.70
2009,04,25,10,48,8.60
2009,04,25,10,49,8.60
2009,04,25,10,50,8.50
2009,04,25,10,51,8.50
2009,04,25,10,52,8.50
2009,04,25,10,53,8.40
2009,04,25,10,54,8.40
2009,04,25,10,55,8.40
2009,04,25,10,56,8.30
2009,04,25,10,57,8.30
2009,04,25,10,58,8.30
2009,04,25,10,59,8.30
2009,04,25,11,00,8.30
2009,04,25,11,01,8.30
2009,04,25,11,02,8.30
2009,04,25,11,03,8.30
2009,04,25,11,04,8.30
2009,04,25,11,05,8.30
2009,04,25,11,06,8.30
2009,04,25,11,07,8.30
2009,04,25,11,08,8.30
2009,04,25,11,09,8.30
2009,04,25,11,10,8.30
2009,04,25,11,11,8.30
2009,04,25,11,12,8.30
2009,04,25,11,13,8.30
2009,04,25,11,14,8.30
2009,04,25,11,15,8.30
2009,04,25,11,16,8.30
2009,04,25,11,17,8.30
2009,04,25,11,18,8.30
2009,04,25,11,19,8.30
2009,04,25,11,20,8.30
2009,04,25,11,21,8.30
2009,04,25,11,22,8.30
2009,04,25,11,23,8.30
2009,04,25,11,24,8.30
2009,04,25,11,25,8.30
2009,04,25,11,26,8.30
2009,04,25,11,27,8.30
2009,04,25,11,28,8.40
2009,04,25,11,29,8.40
2009,04,25,11,30,8.40
2009,04,25,11,31,8.40
2009,04,25,11,32,8.40
2009,04,25,11,33,8.40
2009,04,25,11,34,8.40
2009,04,25,11,35,8.40
2009,04,25,11,36,8.40
2009,04,25,11,37,8.30
2009,04,25,11,38,8.30
2009,04,25,11,39,8.40
2009,04,25,11,40,8.40
2009,04,25,11,41,8.40
2009,04,25,11,42,8.50
2009,04,25,11,43,8.50
2009,04,25,11,44,8.60
2009,04,25,11,45,8.60
2009,04,25,11,46,8.50
2009,04,25,11,47,8.50
2009,04,25,11,48,8.50
2009,04,25,11,49,8.40
2009,04,25,11,50,8.40
2009,04,25,11,51,8.40
2009,04,25,11,52,8.30
2009,04,25,11,53,8.30
2009,04,25,11,54,8.30
2009,04,25,11,55,8.30
2009,04,25,11,56,8.30
2009,04,25,11,57,8.30
2009,04,25,11,58,8.30
2009,04,25,11,59,8.30
2009,04,25,12,00,8.30
2009,04,25,12,01,8.40
2009,04,25,12,02,8.40
2009,04,25,12,03,8.40
2009,04,25,12,04,8.40
2009,04,25,12,05,8.40
2009,04,25,12,06,8.40
2009,04,25,12,07,8.40
2009,04,25,12,08,8.40
2009,04,25,12,09,8.40
2009,04,25,12,10,8.30
2009,04,25,12,11,8.30
2009,04,25,12,12,8.40
2009,04,25,12,13,8.40
2009,04,25,12,14,8.40
2009,04,25,12,15,8.50
2009,04,25,12,16,8.50
2009,04,25,12,17,8.50
2009,04,25,12,18,8.60
2009,04,25,12,19,8.60
2009,04,25,12,20,8.60
2009,04,25,12,21,8.60
2009,04,25,12,22,8.60
2009,04,25,12,23,8.60
2009,04,25,12,24,8.60
2009,04,25,12,25,8.60
2009,04,25,12,26,8.60
2009,04,25,12,27,8.60
2009,04,25,12,28,8.60
2009,04,25,12,29,8.70
2009,04,25,12,30,8.70
2009,04,25,12,31,8.70
2009,04,25,12,32,8.70
2009,04,25,12,33,8.70
2009,04,25,12,34,8.70
2009,04,25,12,35,8.60
2009,04,25,12,36,8.70
2009,04,25,12,37,8.80
2009,04,25,12,38,8.80
2009,04,25,12,39,8.90
2009,04,25,12,40,9.00
2009,04,25,12,41,9.20
2009,04,25,12,42,9.30
2009,04,25,12,43,9.40
2009,04,25,12,44,9.40
2009,04,25,12,45,9.40
2009,04,25,12,46,9.40
2009,04,25,12,47,9.30
2009,04,25,12,48,9.30
2009,04,25,12,49,9.30
2009,04,25,12,50,9.30
2009,04,25,12,51,9.40
2009,04,25,12,52,9.40
2009,04,25,12,53,9.40
2009,04,25,12,54,9.50
2009,04,25,12,55,9.60
2009,04,25,12,56,9.70
2009,04,25,12,57,9.70
2009,04,25,12,58,9.70
2009,04,25,12,59,9.60
2009,04,25,13,00,9.70
2009,04,25,13,01,9.70
2009,04,25,13,02,9.70
2009,04,25,13,03,9.70
2009,04,25,13,04,9.60
2009,04,25,13,05,9.60
2009,04,25,13,06,9.60
2009,04,25,13,07,9.60
2009,04,25,13,08,9.70
2009,04,25,13,09,9.80
2009,04,25,13,10,10.00
2009,04,25,13,11,10.10
2009,04,25,13,12,10.20
2009,04,25,13,13,10.30
2009,04,25,13,14,10.40
2009,04,25,13,15,10.40
2009,04,25,13,16,10.50
2009,04,25,13,17,10.50
2009,04,25,13,18,10.60
2009,04,25,13,19,10.60
2009,04,25,13,20,10.50
2009,04,25,13,21,10.30
2009,04,25,13,22,10.30
2009,04,25,13,23,10.30
2009,04,25,13,24,10.30
2009,04,25,13,25,10.40
2009,04,25,13,26,10.50
2009,04,25,13,27,10.60
2009,04,25,13,28,10.60
2009,04,25,13,29,10.60
2009,04,25,13,30,10.60
2009,04,25,13,31,10.50
2009,04,25,13,32,10.50
2009,04,25,13,33,10.40
2009,04,25,13,34,10.40
2009,04,25,13,35,10.20
2009,04,25,13,36,10.10
2009,04,25,13,37,10.00
2009,04,25,13,38,9.80
2009,04,25,13,39,9.80
2009,04,25,13,40,9.80
2009,04,25,13,41,9.80
2009,04,25,13,42,9.80
2009,04,25,13,43,9.80
2009,04,25,13,44,9.90
2009,04,25,13,45,9.90
2009,04,25,13,46,9.90
2009,04,25,13,47,9.90
2009,04,25,13,48,9.80
2009,04,25,13,49,9.80
2009,04,25,13,50,9.70
2009,04,25,13,51,9.70
2009,04,25,13,52,9.70
2009,04,25,13,53,9.60
2009,04,25,13,54,9.60
2009,04,25,13,55,9.60
2009,04,25,13,56,9.60
2009,04,25,13,57,9.60
2009,04,25,13,58,9.60
2009,04,25,13,59,9.60
2009,04,25,14,00,9.60
2009,04,25,14,01,9.60
2009,04,25,14,02,9.60
2009,04,25,14,03,9.70
2009,04,25,14,04,9.70
2009,04,25,14,05,9.80
2009,04,25,14,06,9.90
2009,04,25,14,07,9.90
2009,04,25,14,08,10.00
2009,04,25,14,09,10.10
2009,04,25,14,10,10.10
2009,04,25,14,11,10.10
2009,04,25,14,12,10.20
2009,04,25,14,13,10.20
2009,04,25,14,14,10.30
2009,04,25,14,15,10.30
2009,04,25,14,16,10.40
2009,04,25,14,17,10.50
2009,04,25,14,18,10.60
2009,04,25,14,19,10.70
2009,04,25,14,20,10.80
2009,04,25,14,21,10.90
2009,04,25,14,22,10.90
2009,04,25,14,23,10.80
2009,04,25,14,24,10.70
2009,04,25,14,25,10.60
2009,04,25,14,26,10.60
2009,04,25,14,27,10.50
2009,04,25,14,28,10.50
2009,04,25,14,29,10.50
2009,04,25,14,30,10.50
2009,04,25,14,31,10.50
2009,04,25,14,32,10.50
2009,04,25,14,33,10.60
2009,04,25,14,34,10.60
2009,04,25,14,35,10.70
2009,04,25,14,36,10.80
2009,04,25,14,37,10.80
2009,04,25,14,38,10.80
2009,04,25,14,39,10.80
2009,04,25,14,40,10.90
2009,04,25,14,41,10.90
2009,04,25,14,42,10.90
2009,04,25,14,43,10.90
2009,04,25,14,44,10.90
2009,04,25,14,45,11.00
2009,04,25,14,46,11.00
2009,04,25,14,47,11.10
2009,04,25,14,48,11.20
2009,04,25,14,49,11.20
2009,04,25,14,50,11.20
2009,04,25,14,51,11.30
2009,04,25,14,52,11.20
2009,04,25,14,53,11.20
2009,04,25,14,54,11.10
2009,04,25,14,55,11.00
2009,04,25,14,56,10.90
2009,04,25,14,57,10.80
2009,04,25,14,58,10.80
2009,04,25,14,59,10.70
2009,04,25,15,00,10.70
2009,04,25,15,01,10.70
2009,04,25,15,02,10.70
2009,04,25,15,03,10.80
2009,04,25,15,04,10.80
2009,04,25,15,05,10.80
2009,04,25,15,06,10.90
2009,04,25,15,07,10.90
2009,04,25,15,08,11.00
2009,04,25,15,09,11.00
2009,04,25,15,10,11.10
2009,04,25,15,11,11.10
2009,04,25,15,12,11.10
2009,04,25,15,13,11.10
2009,04,25,15,14,11.10
2009,04,25,15,15,11.00
2009,04,25,15,16,10.90
2009,04,25,15,17,10.90
2009,04,25,15,18,10.90
2009,04,25,15,19,10.80
2009,04,25,15,20,10.90
2009,04,25,15,21,10.90
2009,04,25,15,22,10.90
2009,04,25,15,23,10.90
2009,04,25,15,24,10.90
2009,04,25,15,25,10.90
2009,04,25,15,26,10.90
2009,04,25,15,27,10.80
2009,04,25,15,28,10.80
2009,04,25,15,29,10.70
2009,04,25,15,30,10.70
2009,04,25,15,31,10.70
2009,04,25,15,32,10.70
2009,04,25,15,33,10.70
2009,04,25,15,34,10.70
2009,04,25,15,35,10.70
2009,04,25,15,36,10.70
2009,04,25,15,37,10.70
2009,04,25,15,38,10.70
2009,04,25,15,39,10.80
2009,04,25,15,40,10.80
2009,04,25,15,41,10.90
2009,04,25,15,42,10.90
2009,04,25,15,43,11.00
2009,04,25,15,44,11.00
2009,04,25,15,45,11.10
2009,04,25,15,46,11.10
2009,04,25,15,47,11.10
2009,04,25,15,48,11.20
2009,04,25,15,49,11.20
2009,04,25,15,50,11.30
2009,04,25,15,51,11.30
2009,04,25,15,52,11.30
2009,04,25,15,53,11.30
2009,04,25,15,54,11.20
2009,04,25,15,55,11.20
2009,04,25,15,56,11.20
2009,04,25,15,57,11.20
2009,04,25,15,58,11.20
2009,04,25,15,59,11.20
2009,04,25,16,00,11.20
2009,04,25,16,01,11.20
2009,04,25,16,02,11.20
2009,04,25,16,03,11.20
2009,04,25,16,04,11.10
2009,04,25,16,05,11.10
2009,04,25,16,06,11.10
2009,04,25,16,07,11.10
2009,04,25,16,08,11.00
2009,04,25,16,09,11.00
2009,04,25,16,10,10.90
2009,04,25,16,11,10.90
2009,04,25,16,12,10.80
2009,04,25,16,13,10.80
2009,04,25,16,14,10.80
2009,04,25,16,15,10.80
2009,04,25,16,16,10.80
2009,04,25,16,17,10.80
2009,04,25,16,18,10.70
2009,04,25,16,19,10.70
2009,04,25,16,20,10.80
2009,04,25,16,21,10.80
2009,04,25,16,22,10.80
2009,04,25,16,23,10.80
2009,04,25,16,24,10.80
2009,04,25,16,25,10.90
2009,04,25,16,26,10.90
2009,04,25,16,27,11.00
2009,04,25,16,28,11.10
2009,04,25,16,29,11.20
2009,04,25,16,30,11.20
2009,04,25,16,31,11.20
2009,04,25,16,32,11.20
2009,04,25,16,33,11.20
2009,04,25,16,34,11.20
2009,04,25,16,35,11.10
2009,04,25,16,36,11.20
2009,04,25,16,37,11.10
2009,04,25,16,38,11.10
2009,04,25,16,39,11.10
2009,04,25,16,40,11.10
2009,04,25,16,41,11.00
2009,04,25,16,42,11.00
2009,04,25,16,43,10.90
2009,04,25,16,44,10.90
2009,04,25,16,45,11.00
2009,04,25,16,46,11.00
2009,04,25,16,47,11.10
2009,04,25,16,48,11.20
2009,04,25,16,49,11.30
2009,04,25,16,50,11.30
2009,04,25,16,51,11.40
2009,04,25,16,52,11.40
2009,04,25,16,53,11.50
2009,04,25,16,54,11.50
2009,04,25,16,55,11.60
2009,04,25,16,56,11.50
2009,04,25,16,57,11.60
2009,04,25,16,58,11.60
2009,04,25,16,59,11.70
2009,04,25,17,00,11.70
2009,04,25,17,01,11.60
2009,04,25,17,02,11.60
2009,04,25,17,03,11.70
2009,04,25,17,04,11.70
2009,04,25,17,05,11.70
2009,04,25,17,06,11.70
2009,04,25,17,07,11.70
2009,04,25,17,08,11.70
2009,04,25,17,09,11.70
2009,04,25,17,10,11.70
2009,04,25,17,11,11.60
2009,04,25,17,12,11.60
2009,04,25,17,13,11.50
2009,04,25,17,14,11.50
2009,04,25,17,15,11.50
2009,04,25,17,16,11.60
2009,04,25,17,17,11.60
2009,04,25,17,18,11.60
2009,04,25,17,19,11.50
2009,04,25,17,20,11.50
2009,04,25,17,21,11.50
2009,04,25,17,22,11.50
2009,04,25,17,23,11.40
2009,04,25,17,24,11.40
2009,04,25,17,25,11.50
2009,04,25,17,26,11.50
2009,04,25,17,27,11.60
2009,04,25,17,28,11.60
2009,04,25,17,29,11.60
2009,04,25,17,30,11.70
2009,04,25,17,31,11.70
2009,04,25,17,32,11.70
2009,04,25,17,33,11.70
2009,04,25,17,34,11.70
2009,04,25,17,35,11.70
2009,04,25,17,36,11.70
2009,04,25,17,37,11.70
2009,04,25,17,38,11.70
2009,04,25,17,39,11.70
2009,04,25,17,40,11.70
2009,04,25,17,41,11.70
2009,04,25,17,42,11.70
2009,04,25,17,43,11.70
2009,04,25,17,44,11.70
2009,04,25,17,45,11.70
2009,04,25,17,46,11.70
2009,04,25,17,47,11.70
2009,04,25,17,48,11.70
2009,04,25,17,49,11.60
2009,04,25,17,50,11.60
2009,04,25,17,51,11.60
2009,04,25,17,52,11.60
2009,04,25,17,53,11.50
2009,04,25,17,54,11.40
2009,04,25,17,55,11.40